LEMD Weather Reports


Display with metric or nautical units.
time (UTC)temp
F
wind
direction
speed
MPH
gust
MPH
rain 1hr
in
rain 24hr
in
rain mn
in
humidity
%
barometer
mb
20260902054503 63 350 5.0 0.0 0.00 0.00 0.00 45 1021.0
20260902050004 63 350 5.0 0.0 0.00 0.00 0.00 45 1021.0
20260902043004 63 360 3.0 0.0 0.00 0.00 0.00 45 1021.0
20260902040003 61 0 1.0 0.0 0.00 0.00 0.00 48 1021.0
20260902034503 61 0 1.0 0.0 0.00 0.00 0.00 48 1021.0
20260902033003 64 360 3.0 0.0 0.00 0.00 0.00 42 1021.0
20260902031503 64 360 3.0 0.0 0.00 0.00 0.00 42 1021.0
20260902024504 64 330 7.0 0.0 0.00 0.00 0.00 42 1021.0
20260902023003 66 350 5.0 0.0 0.00 0.00 0.00 39 1021.0
20260902021502 66 350 5.0 0.0 0.00 0.00 0.00 39 1021.0
20260902020003 66 20 5.0 0.0 0.00 0.00 0.00 39 1020.0
20260902014503 66 20 5.0 0.0 0.00 0.00 0.00 39 1020.0
20260902003004 70 0 2.0 0.0 0.00 0.00 0.00 32 1021.0
20260902001503 70 0 2.0 0.0 0.00 0.00 0.00 32 1021.0
20260902000004 70 0 1.0 0.0 0.00 0.00 0.00 30 1020.0
20260901233003 75 340 2.0 0.0 0.00 0.00 0.00 25 1020.0
20260901230003 75 340 3.0 0.0 0.00 0.00 0.00 25 1020.0
20260901213003 79 0 1.0 0.0 0.00 0.00 0.00 22 1019.0
20260901210004 82 0 2.0 0.0 0.00 0.00 0.00 20 1019.0
20260901204503 82 0 2.0 0.0 0.00 0.00 0.00 20 1019.0
20260901203003 84 280 3.0 0.0 0.00 0.00 0.00 18 1018.0
20260901200004 90 270 6.0 0.0 0.00 0.00 0.00 17 1018.0
20260901194503 90 270 6.0 0.0 0.00 0.00 0.00 17 1018.0
20260901193003 90 280 6.0 0.0 0.00 0.00 0.00 17 1018.0
20260901191502 90 280 6.0 0.0 0.00 0.00 0.00 17 1018.0
20260901190004 91 270 7.0 0.0 0.00 0.00 0.00 16 1018.0
20260901184503 91 270 7.0 0.0 0.00 0.00 0.00 16 1018.0
20260901183003 93 250 8.0 0.0 0.00 0.00 0.00 16 1017.0
20260901174503 93 250 1.0 0.0 0.00 0.00 0.00 16 1017.0
20260901173003 93 250 7.0 0.0 0.00 0.00 0.00 16 1017.0
20260901171503 93 250 7.0 0.0 0.00 0.00 0.00 16 1017.0
20260901170003 93 220 9.0 0.0 0.00 0.00 0.00 16 1018.0
20260901164503 93 220 9.0 0.0 0.00 0.00 0.00 16 1018.0
20260901163004 93 250 13.0 0.0 0.00 0.00 0.00 16 1018.0
20260901161503 93 250 13.0 0.0 0.00 0.00 0.00 16 1018.0
20260901160003 93 210 9.0 0.0 0.00 0.00 0.00 17 1018.0
20260901154503 93 210 9.0 0.0 0.00 0.00 0.00 17 1018.0
20260901153004 91 200 7.0 0.0 0.00 0.00 0.00 21 1018.0
20260901151503 91 200 7.0 0.0 0.00 0.00 0.00 21 1018.0
20260901144503 91 190 9.0 0.0 0.00 0.00 0.00 21 1018.0
20260901141503 91 200 9.0 0.0 0.00 0.00 0.00 21 1019.0
20260901140004 90 200 7.0 0.0 0.00 0.00 0.00 27 1019.0
20260901134503 90 200 7.0 0.0 0.00 0.00 0.00 27 1019.0
20260901133004 90 200 7.0 0.0 0.00 0.00 0.00 27 1019.0
20260901131503 90 200 7.0 0.0 0.00 0.00 0.00 27 1019.0
20260901130003 88 210 6.0 0.0 0.00 0.00 0.00 31 1019.0
20260901124503 88 210 6.0 0.0 0.00 0.00 0.00 31 1019.0
20260901120004 84 0 6.0 0.0 0.00 0.00 0.00 39 1020.0
20260901114504 84 0 6.0 0.0 0.00 0.00 0.00 39 1020.0
20260901111503 81 140 5.0 0.0 0.00 0.00 0.00 44 1020.0
20260901104503 79 90 3.0 0.0 0.00 0.00 0.00 47 1021.0
20260901094503 77 140 3.0 0.0 0.00 0.00 0.00 53 1021.0
20260901093003 75 120 3.0 0.0 0.00 0.00 0.00 53 1020.0
20260901091503 75 120 3.0 0.0 0.00 0.00 0.00 53 1020.0
20260901090003 73 0 2.0 0.0 0.00 0.00 0.00 46 1020.0
20260901083003 70 0 2.0 0.0 0.00 0.00 0.00 46 1020.0
20260901080004 66 360 2.0 0.0 0.00 0.00 0.00 52 1020.0
20260901073003 64 0 2.0 0.0 0.00 0.00 0.00 52 1020.0
20260901061502 64 350 3.0 0.0 0.00 0.00 0.00 52 1020.0